Location: ??????????
(54.7560°N, 39.1389°E)
Time: 17:18:10
(UTC+00:00)

Cosmos 1867 - Pass Details

Date: 19 May 2025
Orbit: 775 x 798 km, 65.0° (Epoch: 21 June)

Event Time Altitude Azimuth Distance (km) Brightness Sun altitude
Rises 18:06:10 0° 313° (NW) 3,315 9.9 -4.7°
Reaches altitude 10° 18:08:36 10° 313° (NW) 2,381 8.0 -4.9°
Maximum altitude 18:14:06 84° 227° (SW) 808 3.7 -5.5°
Drops below altitude 10° 18:19:33 10° 139° (SE) 2,362 5.3 -6.0°
Enters shadow 18:20:09 - 139° (SE) 2,589 5.5 -6.0°
